Weather History for Dubuque, IA

Change the Weather History Date:

Saturday, July 13, 2013

  Actual Average Record
Temperature  
Mean Temperature 70 °F 72 °F  
Max Temperature 80 °F 82 °F 107 °F (1936)
Min Temperature 59 °F 62 °F 49 °F (2007)
Degree Days  
Heating Degree Days 0 0  
Month to date heating degree days 2 0  
Since 1 June heating degree days 41 40  
Since 1 July heating degree days 2 0  
Cooling Degree Days 5 8  
Month to date cooling degree days 78 92  
Year to date cooling degree days 232 268  
Since 1 June cooling degree days 187 231  
Growing Degree Days 20 (Base 50)    
Moisture  
Dew Point 60 °F    
Average Humidity 75    
Maximum Humidity 93    
Minimum Humidity 56    
Precipitation  
Precipitation 0.00 in 0.14 in 2.13 in (1992)
Month to date precipitation 1.13 1.82  
Year to date precipitation 26.34 19.09  
Snow  
Snow 0.00 in 0.00 in - ()
Month to date snowfall 0.0 0.0  
Since 1 June snowfall 0.0 0.0  
Since 1 July snowfall 0.0 0.0  
Snow Depth 0.00 in    
Sea Level Pressure  
Sea Level Pressure 30.12 in    
Wind  
Wind Speed 6 mph (SSE)    
Max Wind Speed 12 mph    
Max Gust Speed 16 mph    
Visibility 10 miles    
Events      
T = Trace of Precipitation, MM = Missing Value Source: NWS Daily Summary

Daily Weather History Graph

Daily Weather History Graph

Search for Another Location

Airport:

Trip Planner

Search our weather history database for the weather conditions in past years. The results will help you decide how hot, cold, wet, or windy it might be!

Date:

Astronomy

Jul. 13, 2013 Rise Set
Actual Time 5:37 AM CDT 8:38 PM CDT
Civil Twilight 5:04 AM CDT 9:12 PM CDT
Nautical Twilight 4:20 AM CDT 9:55 PM CDT
Astronomical Twilight 3:30 AM CDT 10:46 PM CDT
Moon 11:01 AM CDT (7/13) 11:11 PM CDT (7/13)
Length of Visible Light 16h 08m
Length of Day
15h 01m
Waxing Crescent, 26% of the Moon is Illuminated
Jul 13
Waxing Crescent
Jul 15
First Quarter
Jul 22
Full
Jul 29
Last Quarter
Aug 6
New

Hourly Weather History & Observations

Time (CDT) Temp. Dew Point Humidity Pressure Visibility Wind Dir Wind Speed Gust Speed Precip Events Conditions
12:53 AM 62.1 °F 59.0 °F 90% 30.10 in 10.0 mi South 4.6 mph - N/A   Clear
1:53 AM 63.0 °F 57.0 °F 81% 30.11 in 10.0 mi SSE 6.9 mph - N/A   Clear
2:53 AM 64.0 °F 57.0 °F 78% 30.08 in 10.0 mi South 9.2 mph - N/A   Clear
3:53 AM 62.1 °F 57.0 °F 84% 30.10 in 10.0 mi South 5.8 mph - N/A   Clear
4:53 AM 60.1 °F 55.9 °F 86% 30.09 in 10.0 mi South 5.8 mph - N/A   Clear
5:53 AM 59.0 °F 57.0 °F 93% 30.12 in 9.0 mi SSW 3.5 mph - N/A   Clear
6:53 AM 61.0 °F 57.0 °F 87% 30.13 in 9.0 mi SSW 3.5 mph - N/A   Clear
7:53 AM 64.0 °F 57.9 °F 80% 30.14 in 10.0 mi South 5.8 mph - N/A   Clear
8:53 AM 64.9 °F 57.9 °F 78% 30.14 in 10.0 mi South 6.9 mph - N/A   Clear
9:53 AM 66.0 °F 59.0 °F 78% 30.14 in 10.0 mi South 3.5 mph - N/A   Clear
10:53 AM 69.1 °F 61.0 °F 75% 30.15 in 10.0 mi SSE 6.9 mph - N/A   Clear
11:53 AM 73.9 °F 61.0 °F 64% 30.15 in 10.0 mi South 8.1 mph - N/A   Clear
12:53 PM 75.9 °F 61.0 °F 60% 30.15 in 10.0 mi South 6.9 mph - N/A   Clear
1:53 PM 77.0 °F 62.1 °F 60% 30.15 in 10.0 mi SSW 6.9 mph - N/A   Partly Cloudy
2:53 PM 77.0 °F 61.0 °F 58% 30.13 in 10.0 mi SE 4.6 mph - N/A   Partly Cloudy
3:53 PM 78.1 °F 63.0 °F 60% 30.12 in 10.0 mi SSE 6.9 mph - N/A   Clear
4:53 PM 79.0 °F 63.0 °F 58% 30.11 in 10.0 mi SE 8.1 mph - N/A   Clear
5:53 PM 79.0 °F 63.0 °F 58% 30.11 in 10.0 mi SE 10.4 mph - N/A   Clear
6:53 PM 78.1 °F 63.0 °F 60% 30.10 in 10.0 mi SE 9.2 mph - N/A   Clear
7:53 PM 75.0 °F 62.1 °F 64% 30.10 in 10.0 mi Calm Calm - N/A   Clear
8:53 PM 70.0 °F 62.1 °F 76% 30.12 in 10.0 mi Calm Calm - N/A   Clear
9:53 PM 66.9 °F 61.0 °F 81% 30.13 in 10.0 mi SE 6.9 mph - N/A   Clear
10:53 PM 66.9 °F 61.0 °F 81% 30.13 in 10.0 mi SSE 8.1 mph - N/A   Clear
11:53 PM 66.9 °F 60.1 °F 79% 30.13 in 10.0 mi SE 6.9 mph - N/A   Clear